Location: Columbia
(38.9520°N, 92.3340°W)
Time: 15:56:42
(UTC-06:00)

SJ-11-01 - Pass Details

Date: 20 June 2018
Orbit: 684 x 702 km, 98.1° (Epoch: 16 November)

Event Time Altitude Azimuth Distance (km) Brightness Sun altitude
Exits shadow 21:40:22 - 184° (S) 3,117 7.3 -10.5°
Rises 21:40:29 0° 184° (S) 3,073 7.3 -10.5°
Reaches altitude 10° 21:42:50 10° 191° (SSW) 2,160 6.5 -10.9°
Maximum altitude 21:47:18 41° 262° (W) 1,018 5.5 -11.5°
Drops below altitude 10° 21:51:47 10° 332° (NNW) 2,170 8.1 -12.1°
Sets 21:54:10 0° 340° (NNW) 3,090 8.9 -12.5°
